カタログに戻る

SCOUT G-1 DEB

運用中PO
NORAD 28675·DEBRIS·🇺🇸 United States

打ち上げ Aug 25, 1988 から Vandenberg Space Force Base

Loading…

次のパス (今後24時間)

TLE

経年Source: Space-Track

元期: Sep 9, 2026, 02:02 UTC

1 28675U 88074L   26252.08495462  .00000988  00000-0  14098-2 0  9999
2 28675  90.0117   9.0100 0079549 229.0550 259.5757 13.54323381624572

AllMySatでSCOUT G-1 DEBをリアルタイム追跡

Download on the App Store